Temp
19 19 18 18 17 17 17 16 16 17 17 17 16 16 16 16 16 16 16 15 15 15 15 15 15 15 15 14 14 14 14 14 14 14 14 14 13 13
20 20 19 19 18 17 17 16 16 16 17 16 16 16 16 16 16 16 15 15 15 15 15 15 14 14 14 14 14 14 14 14 14 14 14 13 13 13
20 21 20 20 19 18 18 17 16 16 16 16 16 16 16 16 16 16 15 15 15 15 15 15 15 14 14 14 14 14 14 14 14 13 13 13 13 13
21 20 21 20 20 20 19 18 17 16 15 15 15 16 16 16 16 15 15 15 15 15 15 15 14 14 13 13 13 13 14 14 13 13 13 13 13 13
21 21 21 20 19 19 19 18 18 17 16 15 15 15 16 15 15 15 15 15 15 15 15 14 14 14 14 14 13 13 13 13 13 13 12 12 12 12
20 20 19 18 19 19 18 18 17 17 16 15 15 14 15 14 15 15 14 14 15 14 15 14 14 14 13 13 13 13 13 12 12 12 11 11 11 11
20 20 19 19 18 18 17 17 17 16 16 14 14 14 14 14 14 14 14 14 13 14 14 14 13 12 12 12 12 12 11 11 11 11 11 11 10 11
20 20 19 19 18 17 17 16 16 16 15 14 14 14 14 15 14 14 13 13 14 13 13 13 12 12 12 11 11 12 11 10 10 10 10 10 10 10
20 20 19 19 18 17 16 16 16 15 15 15 15 15 14 15 14 14 14 13 13 12 12 12 12 11 11 11 11 11 11 11 11 10 10 9 9 9
20 20 19 19 18 18 17 16 15 15 16 15 15 15 14 14 14 14 14 13 13 12 11 11 11 11 10 10 11 11 10 10 10 10 9 9 9 8
20 20 19 19 18 18 16 15 15 15 15 15 14 14 14 14 14 13 13 13 12 12 10 10 10 10 10 9 9 10 10 9 9 9 9 8 8 8
20 19 19 18 18 17 16 15 15 16 15 15 14 14 14 14 13 13 12 11 12 11 10 9 10 9 10 10 8 8 8 8 8 8 8 9 9 8
20 20 19 18 18 17 16 15 15 16 15 14 14 14 14 13 13 13 12 11 11 10 9 9 9 9 9 8 8 8 8 8 8 8 8 8 8 8
20 20 19 18 17 16 16 15 15 14 14 14 14 13 13 12 12 12 12 11 10 10 9 9 8 8 8 8 9 9 9 8 8 8 8 7 7 7
19 19 19 18 16 16 15 15 14 14 14 14 13 13 13 12 12 12 11 10 10 9 9 9 8 7 7 7 8 8 8 9 8 8 8 7 7 6
17 16 16 16 15 16 15 14 14 15 14 14 13 13 12 12 11 11 10 10 9 9 8 8 8 7 7 7 8 8 8 8 8 8 7 6 6 7
15 15 16 13 14 15 14 14 14 14 14 13 13 13 12 12 11 10 10 9 9 9 8 8 7 7 7 8 7 8 8 8 8 7 6 6 6 6
16 15 15 14 14 15 14 14 14 14 13 13 13 12 12 11 10 10 10 9 8 8 7 7 7 7 8 8 8 8 8 8 7 6 5 6 6 6
15 15 15 14 14 14 14 14 14 14 13 13 12 12 11 10 10 9 8 8 8 7 7 7 7 7 8 9 9 7 6 6 6 6 6 6 5 5
18 15 15 14 14 14 14 14 13 13 13 12 12 11 11 10 10 8 8 8 7 7 7 7 7 7 7 7 7 7 7 6 6 5 5 5 5 4
14 13 14 14 14 14 14 13 13 13 12 12 12 11 11 10 9 8 8 8 7 7 7 7 7 7 7 7 7 8 7 6 5 4 3 3 4 4
13 14 14 14 15 14 14 13 13 12 12 12 11 11 10 10 9 8 8 7 7 7 7 7 7 7 6 7 7 7 7 6 5 4 4 3 2 2
16 14 15 15 15 15 14 13 13 12 12 11 11 10 10 10 9 8 8 7 7 7 7 7 7 7 7 7 6 7 6 5 5 5 5 3 3 2
Height
1581 1582 1583 1584 1586 1586 1588 1589 1591 1591 1590 1591 1590 1590 1591 1591 1590 1590 1591 1591 1590 1590 1589 1588 1587 1586 1585 1584 1584 1583 1583 1582 1581 1580 1579 1579 1578 1577
1577 1577 1578 1579 1581 1582 1583 1585 1586 1587 1587 1587 1587 1588 1588 1588 1588 1588 1587 1586 1586 1587 1587 1586 1584 1582 1582 1581 1580 1579 1579 1578 1577 1576 1575 1574 1573 1572
1571 1572 1573 1574 1575 1577 1578 1579 1580 1582 1583 1584 1583 1585 1586 1586 1585 1583 1582 1584 1584 1582 1580 1579 1577 1576 1575 1574 1574 1574 1573 1572 1572 1571 1570 1569 1568 1567
1565 1566 1568 1568 1568 1569 1571 1573 1575 1577 1579 1579 1579 1579 1581 1582 1582 1580 1580 1579 1580 1581 1579 1576 1573 1572 1571 1569 1568 1568 1566 1565 1564 1564 1563 1562 1561 1560
1559 1560 1557 1560 1565 1566 1567 1568 1570 1572 1574 1575 1576 1575 1576 1576 1577 1578 1578 1576 1574 1574 1572 1569 1569 1567 1566 1565 1563 1561 1559 1558 1557 1556 1555 1555 1554 1553
1552 1554 1555 1558 1560 1561 1562 1564 1566 1567 1569 1571 1571 1570 1570 1572 1571 1570 1570 1568 1566 1565 1565 1564 1563 1563 1561 1559 1558 1556 1555 1552 1550 1549 1548 1547 1547 1546
1545 1546 1548 1551 1553 1555 1557 1558 1560 1562 1563 1565 1567 1566 1565 1567 1567 1567 1565 1566 1564 1562 1562 1561 1558 1558 1556 1552 1551 1549 1548 1547 1545 1543 1542 1541 1540 1539
1537 1539 1541 1544 1545 1547 1549 1550 1553 1554 1556 1559 1562 1561 1559 1560 1561 1561 1563 1565 1567 1560 1559 1557 1555 1555 1553 1550 1545 1543 1542 1540 1539 1538 1536 1535 1533 1531
1528 1531 1534 1536 1539 1541 1543 1544 1546 1548 1551 1552 1554 1554 1555 1556 1556 1557 1557 1556 1556 1559 1554 1552 1551 1549 1546 1545 1541 1538 1536 1534 1532 1530 1529 1527 1526 1525
1519 1523 1526 1528 1530 1531 1535 1537 1539 1542 1543 1546 1547 1548 1549 1549 1550 1550 1551 1551 1550 1550 1548 1545 1545 1543 1541 1538 1535 1533 1530 1527 1525 1524 1522 1521 1520 1518
1511 1512 1518 1521 1524 1527 1528 1531 1533 1535 1538 1540 1541 1542 1542 1543 1546 1546 1544 1543 1546 1546 1543 1540 1540 1539 1535 1532 1530 1527 1524 1521 1519 1518 1517 1515 1513 1511
1500 1503 1508 1511 1515 1520 1523 1524 1526 1528 1533 1536 1537 1536 1539 1541 1541 1539 1540 1541 1542 1541 1540 1537 1536 1536 1532 1529 1525 1523 1520 1517 1514 1513 1512 1510 1508 1505
1489 1494 1498 1504 1506 1507 1514 1518 1522 1525 1528 1530 1531 1533 1537 1536 1536 1537 1536 1537 1539 1539 1535 1531 1531 1532 1530 1526 1522 1520 1517 1514 1512 1509 1507 1504 1503 1500
1477 1484 1491 1495 1497 1500 1504 1513 1516 1519 1523 1525 1527 1530 1532 1534 1533 1533 1531 1530 1532 1534 1533 1527 1526 1527 1526 1523 1520 1517 1514 1510 1507 1505 1502 1499 1495 1492
1470 1478 1483 1489 1493 1492 1499 1509 1513 1512 1517 1520 1522 1524 1527 1528 1528 1528 1526 1526 1527 1527 1526 1523 1520 1521 1520 1518 1516 1512 1508 1505 1502 1499 1496 1493 1490 1486
1470 1475 1480 1482 1490 1483 1496 1503 1506 1506 1511 1514 1516 1517 1519 1523 1526 1526 1523 1521 1525 1527 1521 1519 1517 1516 1517 1515 1511 1507 1504 1500 1497 1494 1490 1486 1483 1479
1452 1468 1464 1479 1486 1483 1490 1499 1500 1500 1505 1509 1509 1514 1517 1519 1521 1522 1521 1522 1520 1517 1519 1517 1514 1513 1512 1509 1506 1503 1499 1494 1492 1488 1483 1478 1474 1471
1454 1456 1472 1476 1480 1480 1487 1492 1495 1497 1501 1503 1507 1511 1514 1514 1517 1518 1515 1515 1518 1513 1513 1514 1513 1510 1509 1505 1501 1499 1495 1490 1486 1482 1477 1472 1465 1462
1437 1451 1458 1458 1467 1476 1480 1485 1487 1491 1495 1499 1502 1506 1511 1510 1514 1512 1510 1512 1513 1513 1511 1510 1509 1507 1505 1501 1500 1494 1489 1485 1481 1476 1472 1467 1459 1452
1414 1437 1440 1455 1463 1468 1471 1475 1482 1484 1488 1492 1496 1501 1503 1504 1507 1510 1506 1509 1506 1507 1510 1509 1507 1503 1499 1497 1493 1490 1484 1480 1476 1470 1464 1458 1452 1443
1414 1430 1436 1447 1454 1456 1463 1471 1476 1479 1484 1486 1491 1495 1495 1498 1501 1502 1501 1502 1500 1501 1504 1506 1502 1497 1493 1489 1488 1486 1482 1477 1471 1464 1457 1451 1443 1435
1430 1434 1436 1443 1444 1449 1455 1465 1469 1474 1480 1481 1484 1486 1490 1491 1492 1497 1500 1498 1497 1497 1500 1501 1498 1493 1490 1488 1485 1481 1477 1472 1467 1460 1453 1447 1442 1432
1422 1426 1430 1437 1438 1441 1453 1458 1464 1468 1474 1476 1478 1479 1481 1482 1483 1491 1493 1489 1490 1491 1495 1498 1494 1490 1486 1484 1481 1478 1473 1467 1461 1455 1450 1444 1436 1428
Wind_Speed
12 12 13 14 12 11 11 9 7 6 6 6 3 4 4 3 6 6 6 7 9 10 10 10 10 11 12 14 15 15 15 15 15 15 15 16 17 17
15 15 14 14 14 14 13 12 13 10 8 6 4 6 7 7 7 6 7 7 8 10 12 14 16 16 15 14 15 16 19 21 21 21 20 19 18 20
19 18 16 16 16 15 14 14 14 13 10 9 9 9 11 12 13 11 11 13 12 12 14 19 19 18 18 17 17 18 18 20 22 24 25 25 27 24
22 21 20 21 20 18 16 15 15 15 13 13 10 13 12 12 12 13 14 14 15 17 20 20 15 16 16 17 18 20 21 22 23 25 27 26 25 24
24 22 22 23 23 22 19 17 15 15 15 16 13 14 15 15 15 15 14 16 19 20 20 17 15 16 18 20 21 21 22 21 22 24 25 25 26 25
28 28 27 23 23 24 23 20 16 16 16 17 15 14 15 13 15 15 14 16 18 18 18 16 17 17 17 17 20 21 21 21 20 19 19 20 21 22
31 32 30 25 24 24 25 24 21 18 17 15 14 13 13 13 15 14 18 14 16 19 21 18 14 14 15 18 21 19 19 18 17 18 19 20 22 24
35 34 32 29 27 26 27 27 25 23 20 17 15 15 16 17 16 17 15 16 18 20 19 13 16 17 17 17 19 19 20 20 18 20 22 25 27 28
38 36 33 31 29 29 26 27 26 25 23 21 21 20 16 16 17 18 18 19 17 16 22 16 15 18 17 16 19 18 19 23 25 24 24 24 22 22
40 38 34 32 29 31 29 28 28 26 24 22 22 19 18 18 17 18 19 21 22 21 19 16 15 15 13 14 20 21 21 20 20 19 18 19 21 22
42 43 36 33 29 29 30 27 27 24 21 20 21 19 18 18 17 18 17 16 14 14 15 12 11 12 15 17 14 16 18 15 14 16 17 19 22 26
46 43 36 35 26 25 31 29 28 23 22 19 18 16 17 17 18 15 14 12 13 11 10 9 12 14 13 13 11 15 14 16 14 12 16 19 20 22
46 42 38 33 26 28 27 29 26 20 19 19 18 17 17 17 15 14 14 9 8 9 12 12 12 15 15 17 15 15 14 14 14 15 19 20 21 23
45 37 33 27 30 28 26 27 22 19 20 19 17 17 16 14 13 12 10 10 11 12 16 17 14 13 15 17 17 15 16 17 16 17 18 19 23 25
36 32 27 29 29 25 25 23 21 19 21 20 19 17 15 14 12 11 10 11 13 14 17 17 15 14 15 16 18 18 20 19 18 17 17 19 22 23
28 22 23 26 29 25 24 25 23 22 21 21 18 18 16 13 12 12 11 11 13 11 14 15 14 16 16 16 17 19 18 21 20 19 19 23 24 23
18 16 15 22 24 23 25 25 25 21 21 21 19 18 16 13 13 13 12 13 13 11 11 10 13 14 17 17 16 16 18 19 18 19 21 26 25 23
20 16 22 30 28 27 28 28 25 22 22 20 19 18 17 14 12 14 13 14 12 10 10 10 11 12 12 16 15 14 16 19 19 20 22 26 29 26
7 25 42 38 35 33 29 27 24 23 22 20 19 17 15 13 15 12 11 12 10 9 9 10 11 10 13 15 13 17 19 18 20 22 24 26 31 31
33 45 40 39 36 31 29 26 25 25 23 21 18 17 15 13 14 12 9 10 8 8 10 11 11 10 11 15 19 17 20 23 20 24 26 26 28 31
40 48 43 41 34 29 28 27 27 25 24 22 19 16 12 13 12 11 9 12 9 8 10 12 11 11 12 14 13 18 17 20 25 25 25 26 27 30
44 42 38 33 30 29 28 29 26 25 25 24 20 14 13 12 9 11 11 9 8 8 12 13 11 9 9 11 15 17 18 21 20 23 25 24 22 28
43 38 33 30 29 27 30 28 26 25 27 23 18 15 14 12 12 13 13 9 8 10 11 12 10 9 9 10 14 16 19 21 22 23 19 23 27 29
Wind_Direction
244 246 239 242 246 247 253 253 239 256 259 262 263 230 237 245 227 231 246 264 267 277 287 288 288 285 281 278 276 280 284 283 280 278 280 285 285 281
240 243 243 244 249 253 252 250 246 245 254 239 252 237 258 271 262 261 272 279 281 286 289 291 287 281 279 279 279 278 280 276 276 278 281 284 286 278
236 240 242 243 245 252 256 251 247 249 245 249 251 256 271 275 265 262 281 287 290 296 300 304 293 275 268 270 277 283 286 286 275 271 275 278 283 276
233 238 244 244 239 240 241 253 252 250 249 248 242 258 270 274 268 272 280 284 289 301 310 311 303 286 279 279 282 285 289 287 281 277 276 279 278 272
233 235 238 238 244 242 241 242 249 248 250 249 254 263 272 269 273 278 286 290 294 301 312 312 306 296 289 290 294 296 296 292 283 278 277 275 273 272
234 238 242 245 246 245 243 242 243 246 248 252 255 256 265 265 271 273 275 282 282 290 304 298 296 294 288 287 290 291 291 294 296 292 286 280 275 270
236 240 244 245 245 248 243 241 238 239 244 245 250 254 254 257 268 269 278 280 292 299 304 295 291 294 289 294 296 293 291 292 290 287 282 279 279 278
239 242 246 247 248 248 245 237 235 237 239 241 247 251 254 266 267 272 279 290 302 301 302 293 291 294 292 291 286 291 288 290 285 283 278 277 279 283
241 245 248 250 250 251 252 242 236 235 240 244 247 254 266 272 274 278 281 286 284 283 291 290 290 291 294 288 288 285 285 289 292 289 282 279 277 280
243 246 248 253 252 249 247 242 235 233 234 240 249 254 264 266 269 279 282 285 287 290 284 291 294 290 291 293 294 292 289 287 287 285 281 276 281 274
243 247 248 250 252 250 241 235 231 229 230 235 234 246 258 261 269 278 283 280 287 285 282 291 299 292 294 295 293 300 306 304 294 281 280 282 284 285
242 245 244 246 241 237 229 228 225 224 229 234 238 250 257 265 270 269 274 271 279 287 263 298 300 302 303 293 296 307 310 310 297 284 291 294 296 297
243 242 241 241 236 224 223 226 225 223 229 229 243 243 258 264 261 271 278 268 260 273 273 304 301 296 287 295 302 309 311 310 302 298 302 297 294 298
241 240 240 236 231 221 217 218 215 215 225 233 231 243 247 245 255 271 271 271 270 276 286 306 297 288 289 292 301 307 309 308 299 298 296 291 302 306
235 233 229 236 220 206 204 208 212 219 228 229 232 236 232 232 253 259 269 278 279 286 300 303 293 285 284 287 297 302 309 310 297 297 296 296 300 302
228 220 223 222 206 191 201 205 215 225 230 226 223 224 224 233 248 258 268 273 279 282 295 295 288 284 285 287 293 299 305 305 303 299 294 295 302 299
192 211 189 217 207 194 202 213 220 213 214 220 218 220 220 235 247 260 272 272 273 278 286 288 287 283 286 292 294 297 305 305 304 300 300 301 301 300
169 187 223 226 218 209 211 215 213 214 220 217 214 218 225 238 237 262 266 267 268 272 279 285 284 292 294 301 299 301 312 307 305 302 307 305 304 305
249 229 214 211 207 213 213 213 216 217 216 212 212 220 232 235 249 248 257 265 264 269 274 274 277 288 302 307 315 309 314 314 309 309 308 305 302 304
217 217 211 209 211 212 208 211 216 211 205 206 210 220 229 238 250 247 253 246 248 264 274 277 278 284 295 303 307 314 330 321 315 311 312 309 304 305
201 207 199 203 205 202 208 214 208 204 208 204 206 217 230 245 243 244 235 243 249 256 265 274 273 291 308 316 313 316 321 320 317 316 317 315 316 316
205 202 199 203 199 202 205 206 202 205 206 203 208 219 243 245 232 238 235 236 256 252 263 273 288 298 307 303 310 318 325 326 328 323 324 318 314 315
205 201 197 199 198 196 201 202 204 205 206 207 212 226 235 247 245 233 229 230 241 252 265 273 287 289 302 302 312 323 327 334 336 335 336 322 326 330